Voltar ao catálogo

TITAN 3C TRANSTAGE DEB

AtivoLEO
NORAD 1833·DEBRIS·🇺🇸 United States

Lançado Oct 15, 1965 de Cape Canaveral Space Force Station

Loading…

Próximas Passagens (próximas 24 horas)

TLE

AtualizadoSource: Space-Track

Época: Sep 14, 2026, 10:59 UTC

1 01833U 65082DY  26257.45805927  .00001896  00000-0  26524-3 0  9994
2 01833  32.2285  26.0252 0058033 231.3129 128.2320 14.74664363183134

Acompanhe TITAN 3C TRANSTAGE DEB em tempo real com AllMySat

Download on the App Store